Date,TemperatureHighF,TemperatureAvgF,TemperatureLowF,DewpointHighF,DewpointAvgF,DewpointLowF,HumidityHigh,HumidityAvg,HumidityLow,PressureMaxIn,PressureMinIn,WindSpeedMaxMPH,WindSpeedAvgMPH,GustSpeedMaxMPH,PrecipitationSumIn
2013-9-1,76.5,72.3,69.0,76.2,71.8,68.7,100,98,95,30.04,29.94,0,0,0,0.13
2013-9-2,76.8,73.0,68.7,75.2,72.3,68.4,100,98,89,30.00,29.85,0,0,2,0.44
2013-9-3,77.4,71.8,63.0,72.5,69.6,61.2,99,93,79,29.95,29.82,0,0,0,0.00
2013-9-4,77.2,66.2,56.9,63.4,59.7,56.2,100,82,56,30.07,29.95,3,0,5,0.00
2013-9-5,68.3,61.8,51.8,64.4,59.0,50.7,99,91,66,30.28,30.01,1,0,2,0.07
2013-9-6,65.5,54.1,43.0,50.7,47.0,42.2,99,80,47,30.40,30.25,3,0,3,0.00
2013-9-7,75.3,61.2,48.6,61.2,53.4,46.6,96,77,49,30.25,30.02,1,0,3,0.00
2013-9-8,74.7,64.2,49.2,64.6,55.8,44.9,96,76,45,30.23,29.90,3,0,5,0.00
2013-9-9,67.5,54.6,40.9,53.6,47.5,39.8,99,79,50,30.39,30.24,2,0,3,0.00
2013-9-10,74.4,68.6,56.2,70.2,65.7,51.8,96,90,84,30.32,30.18,0,0,0,0.01
2013-9-11,87.9,76.9,68.6,77.6,72.4,67.6,98,86,69,30.22,30.09,0,0,0,0.01
2013-9-12,84.5,75.3,69.7,75.5,71.4,68.7,98,88,69,30.11,29.81,3,1,4,0.27
2013-9-13,75.1,68.6,59.8,70.5,66.2,57.2,99,92,79,29.89,29.70,1,0,2,0.42
2013-9-14,66.0,59.7,51.3,59.0,55.1,50.2,96,85,69,30.20,29.89,2,0,4,0.00
2013-9-15,68.6,56.6,46.3,57.0,51.6,45.5,99,85,59,30.32,30.20,1,0,3,0.00
2013-9-16,64.7,56.5,49.1,59.4,53.2,41.3,98,89,71,30.38,30.17,0,0,1,0.03
2013-9-17,59.7,49.4,38.6,48.2,41.4,37.0,96,76,49,30.57,30.39,2,0,7,0.00
2013-9-18,69.2,54.0,40.0,53.4,46.6,39.2,99,79,47,30.49,30.30,0,0,3,0.00
2013-9-19,74.5,60.1,45.7,59.3,52.8,44.5,99,79,48,30.30,30.18,1,0,2,0.00
2013-9-20,76.8,60.9,46.8,59.8,54.3,46.0,100,82,50,30.23,30.14,2,0,2,0.00
2013-9-21,73.3,65.5,55.9,67.1,61.9,55.1,99,89,70,30.18,29.88,2,1,4,0.00
2013-9-22,69.7,63.3,50.3,67.8,59.2,47.8,98,87,63,29.97,29.76,2,1,4,0.63
2013-9-23,62.0,51.9,43.5,49.1,45.1,41.9,94,79,57,30.15,29.97,1,0,4,0.00
2013-9-24,64.6,51.8,41.4,51.3,45.0,39.9,96,79,52,30.15,29.97,3,0,4,0.00
2013-9-25,66.2,54.3,42.6,54.7,48.7,41.8,99,83,63,30.13,30.02,1,0,5,0.00
2013-9-26,63.6,56.3,51.9,54.1,51.1,49.1,95,84,63,30.26,30.13,1,0,4,0.00
2013-9-27,63.7,56.3,47.1,55.2,52.2,45.7,96,87,69,30.41,30.26,2,0,4,0.00
2013-9-28,70.0,55.2,43.4,57.6,50.4,42.6,99,86,58,30.48,30.40,1,0,5,0.00
2013-9-29,66.2,53.3,43.9,56.0,48.9,43.4,100,86,55,30.41,30.27,1,0,4,0.00
2013-9-30,65.2,58.5,50.1,53.7,51.9,49.3,98,80,58,30.27,30.12,1,0,4,0.00